Вернуться в каталог

THORAD AGENA D DEB

АктивенSSO
NORAD 42498·DEBRIS·🇺🇸 United States

Запущен Apr 8, 1970 с Vandenberg Space Force Base

Loading…

Ближайшие Пролёты (ближайшие 24 часа)

TLE

УстаревающийSource: Space-Track

Эпоха: Sep 6, 2026, 23:14 UTC

1 42498U 70025RC  26249.96808111  .00000921  00000-0  17955-2 0  9999
2 42498 100.5030 295.6049 0169116  99.7139 262.3129 13.34025748601790

Отслеживайте THORAD AGENA D DEB в реальном времени с AllMySat

Download on the App Store